This is the latest recevied weather packets stored in our database for station/object KE5YIM-13. If no packets are shown the sender has not sent any weather packets the latest 10 day(s).
| Time | Temp. | Humidity | Pressure | Rain* | Wind** | Luminosity | Snow |
|---|---|---|---|---|---|---|---|
| 1777843079 | 13.33° C | 36% | 1010.6 hPa | 0 mm | - | 350 W/m² | - |
| 1777842775 | 13.33° C | 36% | 1010.6 hPa | 0 mm | - | 189 W/m² | - |
| 1777842475 | 13.33° C | 37% | 1010.5 hPa | 0 mm | - | 141 W/m² | - |
| 1777842173 | 13.89° C | 34% | 1010.7 hPa | 0 mm | - | 329 W/m² | - |
| 1777841868 | 14.44° C | 33% | 1010.5 hPa | 0 mm | - | 398 W/m² | - |
| 1777841565 | 14.44° C | 35% | 1010.5 hPa | 0 mm | - | 407 W/m² | - |
| 1777841261 | 14.44° C | 34% | 1010.5 hPa | 0 mm | - | 433 W/m² | - |
| 1777840959 | 14.44° C | 33% | 1010.7 hPa | 0 mm | - | 460 W/m² | - |
| 1777840656 | 14.44° C | 34% | 1010.5 hPa | 0 mm | - | 495 W/m² | - |
| 1777840354 | 14.44° C | 38% | 1010.5 hPa | 0 mm | - | 478 W/m² | - |
| 1777840050 | 14.44° C | 35% | 1010.6 hPa | 0 mm | - | 521 W/m² | - |
| 1777839748 | 14.44° C | 36% | 1010.6 hPa | 0 mm | - | 563 W/m² | - |
| 1777839446 | 13.33° C | 35% | 1010.4 hPa | 0 mm | - | 561 W/m² | - |
| 1777839143 | 13.33° C | 37% | 1010.4 hPa | 0 mm | - | 162 W/m² | - |
| 1777838839 | 12.78° C | 37% | 1010.8 hPa | 0 mm | - | 582 W/m² | - |
| 1777838536 | 13.89° C | 36% | 1010.8 hPa | 0 mm | - | 602 W/m² | - |
| 1777838233 | 13.89° C | 39% | 1010.7 hPa | 0 mm | - | 596 W/m² | - |
| 1777837930 | 13.33° C | 36% | 1010.5 hPa | 0 mm | - | 642 W/m² | - |
| 1777837627 | 13.33° C | 37% | 1010.7 hPa | 0 mm | - | 664 W/m² | - |
| 1777837322 | 13.89° C | 36% | 1010.7 hPa | 0 mm | - | 693 W/m² | - |
| 1777837019 | 13.33° C | 37% | 1010.8 hPa | 0 mm | - | 794 W/m² | - |
| 1777836715 | 13.89° C | 36% | 1010.7 hPa | 0 mm | - | 550 W/m² | - |
| 1777836411 | 12.78° C | 36% | 1010.8 hPa | 0 mm | - | 278 W/m² | - |
| 1777836106 | 13.33° C | 36% | 1010.6 hPa | 0 mm | - | 393 W/m² | - |
| 1777835803 | 13.89° C | 35% | 1010.9 hPa | 0 mm | - | 875 W/m² | - |
* Rain latest hour (hover to see other rain measurements)
** Current wind speed in m/s (hover to see current wind gust speed)